Content
SEND FEEDBACK

Daily
Averages
Monthly
Summary
United States of America

ASHFIELD, MASSACHUSETTS


Home > North America > United States > Massachusetts
Elevation: 1250 feet     Latitude: 42 31N     Longitude: 072 47W

WEATHER
 
SELECT A DAY
Number of Records: 197,230;   Date Range: 10/28/95 - 8/30/14
 
SHARE

PRINT THIS DATA

[ ← Previous Day ]
WEATHER ALMANAC - JANUARY 26, 2014
[ Next Day → ]
[ °C ]   °F
Weather ElementAverageHighLow
Temperature13.1 °F19.9 °F (10:52 pm)6.1 °F (6:52 am)
Dewpoint-2.6 °F8.1 °F (10:52 pm)-11 °F (7:52 am)
Humidity49.9 %60 % (10:52 pm)40 % (9:52 am)
Barometer29.73 in29.82 in (6:52 pm)29.40 in (1:00 am)
Wind Speed9.3 mph18.4 mph (5:52 am)
Wind Gust29.9 mph (1:00 am)
Weather ElementAverage
Visibility10 mi
Wind DirectionSSW (198.8 °)

Weather ElementTotal
Precipitation---
Heating Degree Days52 (Base 65)
Averaged from 24 records on January 26, 2014
WEATHER CONDITIONS BREAKOUT
WIND DIRECTION BREAKOUT
WEATHER BY HOUR - JANUARY 26, 2014
[ °C ]   °F
Local TimeTemperatureDewpointHumidityBarometerVisibilityWind DirectionWind SpeedGust SpeedPrecipitationEventsConditions
1:00 AM17.6 °F3.2 °F53 %29.40 in9.0 miWest (270°)16.1 mph29.9 mphOvercast
1:52 AM15.1 °F1.9 °F56 %29.49 in10.0 miWest (280°)11.5 mph21.9 mphOvercast
2:52 AM14.0 °F0.0 °F54 %29.53 in10.0 miWNW (290°)10.4 mph18.4 mphOvercast
3:52 AM10.9 °F-2.9 °F54 %29.59 in10.0 miWest (280°)12.7 mph24.2 mphOvercast
4:52 AM10.0 °F-4.0 °F53 %29.62 in10.0 miWest (280°)12.7 mph23.0 mphPartly Cloudy
5:52 AM8.1 °F-9.0 °F46 %29.65 in10.0 miWest (270°)18.4 mph28.8 mphClear
6:52 AM6.1 °F-9.0 °F50 %29.69 in10.0 miWest (270°)15.0 mph29.9 mphClear
7:52 AM6.1 °F-11.0 °F45 %29.73 in10.0 miWest (260°)15.0 mphClear
8:52 AM7.0 °F-11.0 °F44 %29.77 in10.0 miWSW (250°)10.4 mph19.6 mphPartly Cloudy
9:52 AM9.0 °F-11.0 °F40 %29.79 in10.0 miWest (260°)11.5 mph17.3 mphClear
10:52 AM10.9 °F-7.1 °F44 %29.81 in10.0 miWest (270°)11.5 mphClear
11:52 AM12.0 °F-7.1 °F42 %29.81 in10.0 miWest (270°)13.8 mph27.6 mphPartly Cloudy
12:52 PM12.9 °F-6.0 °F43 %29.78 in10.0 miWest (280°)9.2 mphPartly Cloudy
1:52 PM14.0 °F-5.1 °F43 %29.77 in10.0 miWest (260°)8.1 mphPartly Cloudy
2:52 PM14.0 °F-2.9 °F47 %29.78 in10.0 miWest (270°)6.9 mphOvercast
3:52 PM15.1 °F-4.0 °F43 %29.79 in10.0 miSW (230°)5.8 mphScattered Clouds
4:52 PM14.0 °F-2.0 °F49 %29.80 in10.0 miSouth (190°)3.5 mphPartly Cloudy
5:52 PM10.9 °F-2.0 °F56 %29.79 in10.0 miCalmPartly Cloudy
6:52 PM14.0 °F-2.0 °F49 %29.82 in10.0 miCalmOvercast
7:52 PM15.1 °F1.0 °F54 %29.81 in10.0 miEast (80°)5.8 mphOvercast
8:52 PM18.0 °F3.9 °F54 %29.80 in10.0 miSSW (210°)9.2 mph29.9 mphOvercast
9:52 PM19.0 °F7.0 °F59 %29.80 in10.0 miVariable4.6 mphOvercast
10:52 PM19.9 °F8.1 °F60 %29.81 in10.0 miVariable5.8 mphOvercast
11:52 PM19.9 °F8.1 °F60 %29.77 in10.0 miVariable5.8 mphOvercast
Hourly data recorded from KAQW, located miles away from Ashfield, Massachusetts







STORIES FROM OUR PARTNERS